sat.trackr.live / text

‹ back to catalog

STARLINK-36676

NORAD 67912 · 2026-036J

PAYLOAD ACTIVE UNKNOWN

§ Identity

Operator
Country
US
Launch date
2026-02-22
Launch site
AFETR
Launch vehicle
Mass (kg)
RCS (m²)

Purposes: comms

External: N2YO · Heavens-Above · Gunter

§ Orbital elements

Epoch: 2026-05-25T01:40:14.111328Z

Period
94.26 min
Inclination
42.9959°
Eccentricity
0.0001144
Mean motion
15.27610501 rev/d
Perigee alt
482.2 km
Apogee alt
483.7 km
Semi-major
6,861.1 km
B*
5.0271e-4
RAAN
173.8833°
Arg perigee
88.8966°
Mean anomaly
271.2016°
Rev number
1,540

§ Raw data

STARLINK-366761 67912U 26036J   26145.06960777  .00013610  00000+0  50271-3 0  99902 67912  42.9959 173.8833 0001144  88.8966 271.2016 15.27610501 15400

JSON: /api/v1/satellites/67912 · /tle

For live sub-satellite position, see the globe view (requires WebGL).

§ Visibility from observer

Set your observer location to see the next 7 days of passes ≥ 10°. The values pass through the URL so the page stays shareable.

No JS? Fill the form by hand. The geolocation button needs JavaScript.